SL-16 R/B (22285 NORAD) Tracking and Keplerian Element Data

This shows tracking and keplerian element data for the satellite.

Feedback or suggestion? Click here.




ElementValue
Catalog22285
NameSL-16 R/B
Epoch Orbit49898
Epoch Day15.90605444
Epoch Year2022
RAAN301.0487
Inclination71.0219
Eccentricity0.0002089
Argument of Perigee105.5684
Mean Anonmoly254.5669
Mean Motion14.15068901
Decay Rate8.4E-07
L11 22285U 92093B 22015.90605444 .00000084 00000+0 67583-4 0 9998
L22 22285 71.0219 301.0487 0002089 105.5684 254.5669 14.15068901498982

Live tracking and technical data element details for SL-16 R/B (NORAD 22285). SL-16 R/B can be tracked NOW for your location showing map with azimuth and elevation plus other details from your city location.

Track the satellite on the map from your city or location and see movement details for azimuth, elevation, latitude, longitude, range, height, and movement on the map or in text.







IsCatalogInMostPopularTable: catalog: 22285, numindb: 267
Update: records affected: 1



GetName: 22285 SL-16 R/B

Hit Count: updated at: Mon, 17 Jan 2022 01:36:19 GMT